FW9698 Weather Reports


time (UTC)temp
C
wind
direction
speed
KPH
gust
KPH
rain 1hr
cm
rain 24hr
cm
rain mn
cm
humidity
%
barometer
mb
20260506134225 11 360 3.2 4.8 0.00 0.00 0.00 64 1016.2
20260506133224 11 360 4.8 9.7 0.00 0.00 0.00 65 1015.8
20260506132224 11 3 4.8 8.0 0.00 0.00 0.00 66 1015.4
20260506132125 11 357 4.8 8.0 0.00 0.00 0.00 65 1015.5
20260506131123 11 360 3.2 6.4 0.00 0.00 0.00 66 1015.7
20260506131024 11 13 3.2 8.0 0.00 0.00 0.00 66 1015.7
20260506130024 11 12 4.8 9.7 0.00 0.00 0.00 67 1015.5
20260506125123 11 359 4.8 8.0 0.00 0.00 0.00 68 1015.5
20260506124125 11 12 4.8 8.0 0.00 0.00 0.00 69 1015.6
20260506123125 10 5 3.2 8.0 0.00 0.00 0.00 69 1015.4
20260506122223 10 12 3.2 8.0 0.00 0.00 0.00 70 1015.5
20260506121224 10 11 1.6 8.0 0.00 0.00 0.00 70 1015.4
20260506120322 10 360 1.6 4.8 0.00 0.00 0.00 71 1015.0
20260506114325 10 350 3.2 9.7 0.00 0.00 0.00 71 1014.8
20260506114226 10 360 4.8 8.0 0.00 0.00 0.00 71 1014.7
20260506113323 10 360 1.6 4.8 0.00 0.00 0.00 71 1014.6
20260506112340 11 3 3.2 6.4 0.00 0.00 0.00 70 1014.5
20260506110523 11 14 3.2 8.0 0.00 0.00 0.00 69 1014.7
20260506105623 11 345 1.6 4.8 0.00 0.00 0.00 68 1014.6
20260506104623 11 353 3.2 8.0 0.00 0.00 0.00 68 1014.4
20260506103623 11 350 3.2 6.4 0.00 0.00 0.00 67 1014.2
20260506102625 11 347 3.2 6.4 0.00 0.00 0.00 66 1014.0
20260506101623 11 358 3.2 4.8 0.00 0.00 0.00 64 1014.3
20260506100625 11 358 3.2 6.4 0.00 0.00 0.00 65 1013.7
20260506094626 12 7 3.2 8.0 0.00 0.00 0.00 64 1013.4
20260506093723 12 2 3.2 8.0 0.00 0.00 0.00 62 1013.5
20260506091724 12 11 3.2 6.4 0.00 0.00 0.00 61 1013.1
20260506090725 12 360 0.0 4.8 0.00 0.00 0.00 62 1013.3
20260506085724 12 344 1.6 4.8 0.00 0.00 0.00 60 1013.1
20260506084723 12 360 0.0 4.8 0.00 0.00 0.00 60 1013.2
20260506083822 12 347 3.2 4.8 0.00 0.00 0.00 61 1013.0
20260506082824 12 360 1.6 4.8 0.00 0.00 0.00 60 1012.7
20260506081922 12 352 3.2 6.4 0.00 0.00 0.00 59 1012.8
20260506080923 12 348 3.2 8.0 0.00 0.00 0.00 59 1013.0
20260506073041 12 8 1.6 4.8 0.00 0.00 0.00 57 1012.7
20260506072023 12 356 1.6 6.4 0.00 0.00 0.00 56 1012.8
20260506071024 12 360 1.6 3.2 0.00 0.00 0.00 57 1013.0
20260506062023 13 360 1.6 4.8 0.00 0.00 0.00 56 1013.3
20260506051126 13 358 3.2 8.0 0.00 0.00 0.00 60 1013.2
20260506050123 13 182 0.0 4.8 0.00 0.00 0.00 60 1013.0
20260506045125 13 337 3.2 8.0 0.00 0.00 0.00 59 1013.1
20260506044125 13 355 4.8 6.4 0.00 0.00 0.00 60 1013.0
20260506043126 13 12 4.8 9.7 0.00 0.00 0.00 60 1013.1
20260506042225 14 350 3.2 6.4 0.00 0.00 0.00 61 1013.1
20260506041225 14 352 3.2 6.4 0.00 0.00 0.00 61 1012.9
20260506040325 14 335 1.6 6.4 0.00 0.00 0.00 60 1012.9
20260506035343 14 360 1.6 8.0 0.00 0.00 0.00 60 1012.9
20260506034326 15 351 3.2 6.4 0.00 0.00 0.00 61 1012.9
20260506034224 15 1 4.8 8.0 0.00 0.00 0.00 61 1012.9
20260506033227 15 349 1.6 4.8 0.00 0.00 0.00 60 1012.7
20260506032226 15 350 3.2 6.4 0.00 0.00 0.00 61 1012.6
20260506031225 15 347 3.2 6.4 0.00 0.00 0.00 60 1012.6
20260506025327 16 360 1.6 6.4 0.00 0.00 0.00 62 1011.8
20260506024328 16 360 0.0 4.8 0.00 0.00 0.00 62 1011.6
20260506023326 16 340 3.2 8.0 0.00 0.00 0.00 63 1011.3
20260506022325 16 359 4.8 8.0 0.00 0.00 0.00 62 1011.1
20260506015426 16 347 4.8 8.0 0.00 0.00 0.00 61 1010.8
20260506013524 17 338 3.2 8.0 0.00 0.00 0.00 62 1010.5
20260506012526 17 7 4.8 16.1 0.00 0.00 0.00 62 1010.1
20260506011624 17 345 4.8 6.4 0.00 0.00 0.00 63 1009.6
20260506010627 18 336 4.8 8.0 0.00 0.00 0.00 62 1009.6
20260506005625 18 5 4.8 9.7 0.00 0.00 0.00 63 1009.4
20260506004725 19 340 4.8 11.3 0.00 0.00 0.00 60 1009.1
20260506003725 20 348 3.2 8.0 0.00 0.00 0.00 60 1008.8
20260506002743 20 311 1.6 6.4 0.00 0.00 0.00 60 1008.9
20260506001726 20 318 3.2 8.0 0.00 0.00 0.00 61 1008.9
20260506000740 20 326 3.2 9.7 0.00 0.00 0.00 60 1009.1
20260505234726 21 360 4.8 9.7 0.00 0.00 0.00 59 1008.5
20260505233741 21 354 6.4 11.3 0.00 0.00 0.00 58 1008.8
20260505231825 23 295 6.4 16.1 0.00 0.00 0.00 56 1008.5
20260505230825 23 332 4.8 8.0 0.00 0.00 0.00 59 1008.2
20260505225827 23 322 4.8 11.3 0.00 0.00 0.00 58 1007.8
20260505224825 24 299 6.4 12.9 0.00 0.00 0.00 56 1008.2
20260505222824 25 312 4.8 11.3 0.00 0.00 0.00 55 1007.4
20260505220926 26 298 6.4 12.9 0.00 0.00 0.00 47 1006.8
20260505215925 26 307 4.8 8.0 0.00 0.00 0.00 46 1006.9
20260505214025 27 308 3.2 8.0 0.00 0.00 0.00 43 1006.8
20260505213025 27 313 1.6 4.8 0.00 0.00 0.00 42 1007.0
20260505212025 28 286 4.8 6.4 0.00 0.00 0.00 40 1007.2
20260505211024 28 306 6.4 14.5 0.00 0.00 0.00 41 1007.0
20260505210025 30 286 8.0 12.9 0.00 0.00 0.00 47 1007.0
20260505205025 30 280 3.2 6.4 0.00 0.00 0.00 47 1007.0
20260505204025 30 296 3.2 9.7 0.00 0.00 0.00 49 1007.0
20260505203025 30 319 4.8 14.5 0.00 0.00 0.00 53 1006.9
20260505202026 30 223 3.2 4.8 0.00 0.00 0.00 54 1006.9
20260505201026 29 166 3.2 6.4 0.00 0.00 0.00 54 1006.9
20260505200042 28 96 1.6 6.4 0.00 0.00 0.00 53 1006.9
20260505195123 28 143 3.2 8.0 0.00 0.00 0.00 53 1007.2
20260505194126 28 194 1.6 6.4 0.00 0.00 0.00 57 1007.2
20260505193224 28 195 0.0 1.6 0.00 0.00 0.00 54 1007.2
20260505192225 27 308 1.6 8.0 0.00 0.00 0.00 53 1007.1
20260505191225 28 71 1.6 6.4 0.00 0.00 0.00 51 1007.0
20260505190225 28 150 3.2 8.0 0.00 0.00 0.00 51 1006.8
20260505185227 28 283 3.2 8.0 0.00 0.00 0.00 55 1006.8
20260505184323 27 50 1.6 6.4 0.00 0.00 0.00 53 1006.7
20260505183343 27 140 4.8 11.3 0.00 0.00 0.00 54 1006.7
20260505182425 27 148 3.2 8.0 0.00 0.00 0.00 54 1007.0
20260505181524 27 129 4.8 9.7 0.00 0.00 0.00 57 1007.1
20260505180526 26 318 3.2 9.7 0.00 0.00 0.00 59 1007.0
20260505175525 26 155 4.8 11.3 0.00 0.00 0.00 59 1007.1
20260505174526 26 166 1.6 6.4 0.00 0.00 0.00 62 1007.1
20260505173524 26 179 0.0 3.2 0.00 0.00 0.00 60 1006.8
20260505172623 25 153 3.2 9.7 0.00 0.00 0.00 61 1006.7
20260505171625 25 145 3.2 4.8 0.00 0.00 0.00 61 1006.8
20260505170625 25 130 6.4 11.3 0.00 0.00 0.00 61 1006.6
20260505165724 25 143 6.4 16.1 0.00 0.00 0.00 62 1006.8
20260505164725 25 161 1.6 6.4 0.00 0.00 0.00 62 1006.8
20260505163725 25 155 4.8 11.3 0.00 0.00 0.00 63 1006.5
20260505161725 24 138 1.6 9.7 0.00 0.00 0.00 62 1006.7
20260505151825 24 141 6.4 14.5 0.00 0.00 0.00 62 1006.7
20260505150923 24 124 4.8 12.9 0.00 0.00 0.00 64 1006.7